| time (UTC) | temp F | wind direction | speed MPH | gust MPH | rain 1hr in | rain 24hr in | rain mn in | humidity % | barometer mb |
| 20260508225334 | 69 | 204 | 0.0 | 0.0 | 0.00 | 0.00 | 0.00 | 33 | 1045.5 |
| 20260508224832 | 70 | 204 | 0.0 | 0.0 | 0.00 | 0.00 | 0.00 | 34 | 1045.4 |
| 20260508224329 | 70 | 280 | 0.0 | 0.0 | 0.00 | 0.00 | 0.00 | 34 | 1045.6 |
| 20260508223826 | 70 | 248 | 0.0 | 0.0 | 0.00 | 0.00 | 0.00 | 34 | 1045.4 |
| 20260508223323 | 70 | 228 | 0.0 | 0.0 | 0.00 | 0.00 | 0.00 | 34 | 1045.6 |
| 20260508222821 | 70 | 235 | 0.0 | 0.0 | 0.00 | 0.00 | 0.00 | 37 | 1045.4 |
| 20260508222318 | 70 | 227 | 0.0 | 0.0 | 0.00 | 0.00 | 0.00 | 33 | 1045.6 |
| 20260508221814 | 70 | 227 | 0.0 | 0.0 | 0.00 | 0.00 | 0.00 | 35 | 1045.4 |
| 20260508221310 | 70 | 240 | 0.0 | 0.0 | 0.00 | 0.00 | 0.00 | 35 | 1045.6 |
| 20260508220807 | 70 | 224 | 0.0 | 0.0 | 0.00 | 0.00 | 0.00 | 34 | 1045.5 |
| 20260508220303 | 70 | 263 | 0.0 | 0.0 | 0.00 | 0.00 | 0.00 | 32 | 1045.4 |
| 20260508215800 | 70 | 230 | 0.0 | 0.0 | 0.00 | 0.00 | 0.00 | 31 | 1045.2 |
| 20260508215256 | 70 | 250 | 0.0 | 0.0 | 0.00 | 0.00 | 0.00 | 33 | 1045.4 |
| 20260508214754 | 70 | 289 | 0.0 | 0.0 | 0.00 | 0.00 | 0.00 | 34 | 1045.4 |
| 20260508214251 | 70 | 273 | 0.0 | 0.0 | 0.00 | 0.00 | 0.00 | 32 | 1045.2 |
| 20260508213747 | 70 | 222 | 0.0 | 0.0 | 0.00 | 0.00 | 0.00 | 32 | 1045.0 |
| 20260508213244 | 71 | 198 | 0.0 | 0.0 | 0.00 | 0.00 | 0.00 | 32 | 1045.0 |
| 20260508212741 | 71 | 251 | 0.0 | 0.0 | 0.00 | 0.00 | 0.00 | 32 | 1044.8 |
| 20260508212237 | 70 | 281 | 0.0 | 0.0 | 0.00 | 0.00 | 0.00 | 32 | 1045.1 |
| 20260508211733 | 70 | 269 | 0.0 | 0.0 | 0.00 | 0.00 | 0.00 | 33 | 1045.4 |
| 20260508211229 | 71 | 213 | 0.0 | 0.0 | 0.00 | 0.00 | 0.00 | 35 | 1045.6 |
| 20260508210726 | 71 | 268 | 0.0 | 0.0 | 0.00 | 0.00 | 0.00 | 36 | 1045.6 |
| 20260508210223 | 70 | 211 | 0.0 | 0.0 | 0.00 | 0.00 | 0.00 | 34 | 1045.8 |
| 20260508205720 | 70 | 262 | 0.0 | 0.0 | 0.00 | 0.00 | 0.00 | 32 | 1045.9 |
| 20260508205216 | 70 | 285 | 0.0 | 0.0 | 0.00 | 0.00 | 0.00 | 36 | 1046.0 |
| 20260508204712 | 71 | 228 | 0.0 | 0.0 | 0.00 | 0.00 | 0.00 | 33 | 1046.0 |
| 20260508204209 | 71 | 194 | 0.0 | 0.0 | 0.00 | 0.00 | 0.00 | 37 | 1046.1 |
| 20260508203705 | 71 | 271 | 0.0 | 0.0 | 0.00 | 0.00 | 0.00 | 39 | 1046.0 |
| 20260508203201 | 71 | 276 | 0.0 | 0.0 | 0.00 | 0.00 | 0.00 | 35 | 1046.3 |
| 20260508202658 | 70 | 334 | 0.0 | 0.0 | 0.00 | 0.00 | 0.00 | 35 | 1046.4 |
| 20260508202155 | 70 | 268 | 0.0 | 0.0 | 0.00 | 0.00 | 0.00 | 36 | 1046.4 |
| 20260508201652 | 71 | 280 | 0.0 | 0.0 | 0.00 | 0.00 | 0.00 | 37 | 1046.8 |
| 20260508201149 | 71 | 232 | 0.0 | 0.0 | 0.00 | 0.00 | 0.00 | 40 | 1046.8 |
| 20260508200645 | 70 | 310 | 0.0 | 0.0 | 0.00 | 0.00 | 0.00 | 39 | 1046.8 |
| 20260508200141 | 70 | 267 | 0.0 | 0.0 | 0.00 | 0.00 | 0.00 | 34 | 1046.6 |
| 20260508195638 | 69 | 222 | 0.0 | 0.0 | 0.00 | 0.00 | 0.00 | 37 | 1046.4 |
| 20260508195134 | 69 | 288 | 0.0 | 0.0 | 0.00 | 0.00 | 0.00 | 36 | 1046.7 |
| 20260508194631 | 70 | 231 | 0.0 | 0.0 | 0.00 | 0.00 | 0.00 | 36 | 1046.6 |
| 20260508194128 | 70 | 230 | 0.0 | 0.0 | 0.00 | 0.00 | 0.00 | 36 | 1046.5 |
| 20260508193625 | 70 | 207 | 0.0 | 0.0 | 0.00 | 0.00 | 0.00 | 38 | 1046.7 |
| 20260508193122 | 70 | 236 | 0.0 | 0.0 | 0.00 | 0.00 | 0.00 | 36 | 1046.8 |
| 20260508192618 | 70 | 253 | 0.0 | 0.0 | 0.00 | 0.00 | 0.00 | 40 | 1046.8 |
| 20260508192115 | 69 | 254 | 0.0 | 0.0 | 0.00 | 0.00 | 0.00 | 39 | 1046.8 |
| 20260508191612 | 70 | 235 | 0.0 | 0.0 | 0.00 | 0.00 | 0.00 | 37 | 1046.8 |
| 20260508191109 | 70 | 224 | 0.0 | 0.0 | 0.00 | 0.00 | 0.00 | 36 | 1046.6 |
| 20260508190606 | 70 | 210 | 0.0 | 0.0 | 0.00 | 0.00 | 0.00 | 36 | 1047.0 |
| 20260508185600 | 69 | 222 | 0.0 | 0.0 | 0.00 | 0.00 | 0.00 | 39 | 1047.1 |
| 20260508185057 | 69 | 74 | 0.0 | 0.0 | 0.00 | 0.00 | 0.00 | 38 | 1047.4 |
| 20260508184554 | 69 | 211 | 0.0 | 0.0 | 0.00 | 0.00 | 0.00 | 37 | 1047.5 |
| 20260508184051 | 69 | 214 | 0.0 | 0.0 | 0.00 | 0.00 | 0.00 | 35 | 1047.1 |
| 20260508183547 | 69 | 214 | 0.0 | 0.0 | 0.00 | 0.00 | 0.00 | 41 | 1047.4 |
| 20260508183043 | 70 | 261 | 0.0 | 0.0 | 0.00 | 0.00 | 0.00 | 41 | 1047.7 |
| 20260508182540 | 70 | 198 | 0.0 | 0.0 | 0.00 | 0.00 | 0.00 | 36 | 1047.6 |
| 20260508182037 | 70 | 246 | 0.0 | 0.0 | 0.00 | 0.00 | 0.00 | 40 | 1047.5 |
| 20260508181532 | 69 | 194 | 0.0 | 0.0 | 0.00 | 0.00 | 0.00 | 45 | 1047.9 |
| 20260508181030 | 69 | 217 | 0.0 | 0.0 | 0.00 | 0.00 | 0.00 | 35 | 1047.9 |
| 20260508180526 | 68 | 264 | 0.0 | 0.0 | 0.00 | 0.00 | 0.00 | 38 | 1047.9 |
| 20260508180023 | 69 | 243 | 0.0 | 0.0 | 0.00 | 0.00 | 0.00 | 36 | 1048.1 |
| 20260508175519 | 69 | 207 | 0.0 | 0.0 | 0.00 | 0.00 | 0.00 | 39 | 1048.3 |
| 20260508175017 | 69 | 214 | 0.0 | 0.0 | 0.00 | 0.00 | 0.00 | 37 | 1048.5 |
| 20260508174514 | 69 | 217 | 0.0 | 0.0 | 0.00 | 0.00 | 0.00 | 40 | 1048.8 |
| 20260508174011 | 68 | 248 | 0.0 | 0.0 | 0.00 | 0.00 | 0.00 | 37 | 1048.8 |
| 20260508173508 | 68 | 218 | 0.0 | 0.0 | 0.00 | 0.00 | 0.00 | 39 | 1049.0 |
| 20260508173004 | 69 | 224 | 0.0 | 0.0 | 0.00 | 0.00 | 0.00 | 40 | 1048.8 |
| 20260508172501 | 68 | 257 | 0.0 | 0.0 | 0.00 | 0.00 | 0.00 | 43 | 1049.0 |
| 20260508171957 | 67 | 209 | 0.0 | 0.0 | 0.00 | 0.00 | 0.00 | 43 | 1049.2 |
| 20260508171454 | 68 | 294 | 0.0 | 0.0 | 0.00 | 0.00 | 0.00 | 37 | 1049.1 |
| 20260508170950 | 67 | 213 | 0.0 | 0.0 | 0.00 | 0.00 | 0.00 | 40 | 1049.4 |
| 20260508170448 | 67 | 222 | 0.0 | 0.0 | 0.00 | 0.00 | 0.00 | 39 | 1049.2 |
| 20260508165945 | 68 | 276 | 0.0 | 0.0 | 0.00 | 0.00 | 0.00 | 41 | 1049.3 |
| 20260508165443 | 67 | 131 | 0.0 | 0.0 | 0.00 | 0.00 | 0.00 | 38 | 1049.6 |
| 20260508164938 | 67 | 202 | 0.0 | 0.0 | 0.00 | 0.00 | 0.00 | 43 | 1049.7 |
| 20260508164436 | 67 | 288 | 0.0 | 0.0 | 0.00 | 0.00 | 0.00 | 41 | 1049.8 |
| 20260508163933 | 67 | 258 | 0.0 | 0.0 | 0.00 | 0.00 | 0.00 | 39 | 1050.0 |
| 20260508163431 | 67 | 277 | 0.0 | 0.0 | 0.00 | 0.00 | 0.00 | 37 | 1050.2 |
| 20260508162926 | 67 | 284 | 0.0 | 0.0 | 0.00 | 0.00 | 0.00 | 43 | 1050.0 |
| 20260508162424 | 67 | 312 | 0.0 | 0.0 | 0.00 | 0.00 | 0.00 | 42 | 1050.1 |
| 20260508161920 | 66 | 231 | 0.0 | 0.0 | 0.00 | 0.00 | 0.00 | 43 | 1050.3 |
| 20260508161418 | 66 | 268 | 0.0 | 0.0 | 0.00 | 0.00 | 0.00 | 49 | 1050.1 |
| 20260508160915 | 67 | 212 | 0.0 | 0.0 | 0.00 | 0.00 | 0.00 | 41 | 1050.3 |
| 20260508160414 | 66 | 171 | 0.0 | 0.0 | 0.00 | 0.00 | 0.00 | 42 | 1050.4 |
| 20260508155909 | 65 | 203 | 0.0 | 0.0 | 0.00 | 0.00 | 0.00 | 47 | 1050.4 |
| 20260508155407 | 65 | 264 | 0.0 | 0.0 | 0.00 | 0.00 | 0.00 | 42 | 1050.5 |
| 20260508154903 | 65 | 269 | 0.0 | 0.0 | 0.00 | 0.00 | 0.00 | 46 | 1050.5 |
| 20260508154401 | 65 | 257 | 0.0 | 0.0 | 0.00 | 0.00 | 0.00 | 43 | 1050.6 |
| 20260508153857 | 65 | 260 | 0.0 | 0.0 | 0.00 | 0.00 | 0.00 | 46 | 1050.6 |
| 20260508153355 | 65 | 180 | 0.0 | 0.0 | 0.00 | 0.00 | 0.00 | 39 | 1050.8 |
| 20260508152850 | 65 | 282 | 0.0 | 0.0 | 0.00 | 0.00 | 0.00 | 43 | 1050.8 |
| 20260508152347 | 65 | 231 | 0.0 | 0.0 | 0.00 | 0.00 | 0.00 | 47 | 1051.0 |
| 20260508151844 | 64 | 218 | 0.0 | 0.0 | 0.00 | 0.00 | 0.00 | 39 | 1050.8 |
| 20260508151341 | 64 | 182 | 0.0 | 0.0 | 0.00 | 0.00 | 0.00 | 43 | 1050.8 |
| 20260508150837 | 64 | 190 | 0.0 | 0.0 | 0.00 | 0.00 | 0.00 | 43 | 1050.8 |
| 20260508150334 | 64 | 301 | 0.0 | 0.0 | 0.00 | 0.00 | 0.00 | 40 | 1050.9 |
| 20260508145830 | 64 | 226 | 0.0 | 0.0 | 0.00 | 0.00 | 0.00 | 46 | 1050.8 |
| 20260508145326 | 64 | 196 | 0.0 | 0.0 | 0.00 | 0.00 | 0.00 | 47 | 1050.9 |
| 20260508144823 | 63 | 232 | 0.0 | 0.0 | 0.00 | 0.00 | 0.00 | 47 | 1050.8 |
| 20260508144321 | 63 | 222 | 0.0 | 0.0 | 0.00 | 0.00 | 0.00 | 46 | 1050.8 |
| 20260508143818 | 62 | 234 | 0.0 | 0.0 | 0.00 | 0.00 | 0.00 | 50 | 1050.9 |
| 20260508143315 | 63 | 249 | 0.0 | 0.0 | 0.00 | 0.00 | 0.00 | 49 | 1050.8 |
| 20260508142812 | 62 | 256 | 0.0 | 0.0 | 0.00 | 0.00 | 0.00 | 49 | 1050.8 |
| 20260508142309 | 62 | 282 | 0.0 | 0.0 | 0.00 | 0.00 | 0.00 | 47 | 1051.0 |
| 20260508141805 | 61 | 131 | 0.0 | 0.0 | 0.00 | 0.00 | 0.00 | 45 | 1051.1 |
| 20260508141302 | 61 | 294 | 0.0 | 0.0 | 0.00 | 0.00 | 0.00 | 48 | 1050.9 |
| 20260508140800 | 61 | 294 | 0.0 | 0.0 | 0.00 | 0.00 | 0.00 | 49 | 1050.8 |
| 20260508140257 | 60 | 271 | 0.0 | 0.0 | 0.00 | 0.00 | 0.00 | 50 | 1050.9 |
| 20260508135752 | 59 | 261 | 0.0 | 0.0 | 0.00 | 0.00 | 0.00 | 50 | 1051.1 |
| 20260508135249 | 59 | 237 | 0.0 | 0.0 | 0.00 | 0.00 | 0.00 | 52 | 1051.0 |
| 20260508134744 | 58 | 241 | 0.0 | 0.0 | 0.00 | 0.00 | 0.00 | 52 | 1050.9 |
| 20260508134242 | 58 | 235 | 0.0 | 0.0 | 0.00 | 0.00 | 0.00 | 53 | 1050.9 |
| 20260508133738 | 58 | 219 | 0.0 | 0.0 | 0.00 | 0.00 | 0.00 | 55 | 1051.1 |
| 20260508133236 | 57 | 243 | 0.0 | 0.0 | 0.00 | 0.00 | 0.00 | 60 | 1050.9 |
| 20260508132734 | 57 | 221 | 0.0 | 0.0 | 0.00 | 0.00 | 0.00 | 58 | 1051.1 |
| 20260508132231 | 56 | 239 | 0.0 | 0.0 | 0.00 | 0.00 | 0.00 | 61 | 1050.9 |
| 20260508131726 | 55 | 219 | 0.0 | 0.0 | 0.00 | 0.00 | 0.00 | 60 | 1051.1 |
| 20260508131223 | 55 | 236 | 0.0 | 0.0 | 0.00 | 0.00 | 0.00 | 61 | 1051.0 |
| 20260508130720 | 54 | 272 | 0.0 | 0.0 | 0.00 | 0.00 | 0.00 | 63 | 1050.9 |
| 20260508130217 | 53 | 235 | 0.0 | 0.0 | 0.00 | 0.00 | 0.00 | 67 | 1051.0 |
| 20260508125712 | 52 | 230 | 0.0 | 0.0 | 0.00 | 0.00 | 0.00 | 71 | 1051.1 |
| 20260508125209 | 51 | 273 | 0.0 | 0.0 | 0.00 | 0.00 | 0.00 | 72 | 1051.1 |
| 20260508124707 | 51 | 255 | 0.0 | 0.0 | 0.00 | 0.00 | 0.00 | 74 | 1051.1 |
| 20260508124204 | 50 | 264 | 0.0 | 0.0 | 0.00 | 0.00 | 0.00 | 78 | 1051.0 |
| 20260508123702 | 50 | 253 | 0.0 | 0.0 | 0.00 | 0.00 | 0.00 | 76 | 1051.0 |
| 20260508123200 | 49 | 248 | 0.0 | 0.0 | 0.00 | 0.00 | 0.00 | 81 | 1050.9 |
| 20260508122656 | 48 | 272 | 0.0 | 0.0 | 0.00 | 0.00 | 0.00 | 81 | 1050.9 |
| 20260508122153 | 47 | 269 | 0.0 | 0.0 | 0.00 | 0.00 | 0.00 | 82 | 1051.1 |
| 20260508121651 | 47 | 254 | 0.0 | 0.0 | 0.00 | 0.00 | 0.00 | 80 | 1050.9 |
| 20260508121149 | 46 | 223 | 0.0 | 0.0 | 0.00 | 0.00 | 0.00 | 84 | 1050.9 |
| 20260508120646 | 45 | 263 | 0.0 | 0.0 | 0.00 | 0.00 | 0.00 | 84 | 1050.9 |
| 20260508120144 | 45 | 265 | 0.0 | 0.0 | 0.00 | 0.00 | 0.00 | 83 | 1050.9 |
| 20260508115642 | 44 | 278 | 0.0 | 0.0 | 0.00 | 0.00 | 0.00 | 85 | 1051.0 |
| 20260508115138 | 43 | 260 | 0.0 | 0.0 | 0.00 | 0.00 | 0.00 | 89 | 1050.8 |
| 20260508114635 | 43 | 271 | 0.0 | 0.0 | 0.00 | 0.00 | 0.00 | 93 | 1050.7 |
| 20260508114131 | 43 | 22 | 0.0 | 0.0 | 0.00 | 0.00 | 0.00 | 96 | 1050.8 |
| 20260508113629 | 40 | 22 | 0.0 | 0.0 | 0.00 | 0.00 | 0.00 | 97 | 1050.9 |
| 20260508113127 | 38 | 22 | 0.0 | 0.0 | 0.00 | 0.00 | 0.00 | 96 | 1050.6 |
| 20260508112623 | 37 | 22 | 0.0 | 0.0 | 0.00 | 0.00 | 0.00 | 95 | 1050.4 |
| 20260508112120 | 37 | 22 | 0.0 | 0.0 | 0.00 | 0.00 | 0.00 | 95 | 1050.5 |
| 20260508111616 | 36 | 22 | 0.0 | 0.0 | 0.00 | 0.00 | 0.00 | 95 | 1050.3 |
| 20260508111114 | 36 | 22 | 0.0 | 0.0 | 0.00 | 0.00 | 0.00 | 95 | 1050.4 |
| 20260508110612 | 36 | 22 | 0.0 | 0.0 | 0.00 | 0.00 | 0.00 | 95 | 1050.4 |
| 20260508110108 | 36 | 22 | 0.0 | 0.0 | 0.00 | 0.00 | 0.00 | 95 | 1050.5 |
| 20260508105607 | 36 | 22 | 0.0 | 0.0 | 0.00 | 0.00 | 0.00 | 95 | 1050.3 |
| 20260508105105 | 36 | 22 | 0.0 | 0.0 | 0.00 | 0.00 | 0.00 | 94 | 1050.3 |
| 20260508104603 | 36 | 22 | 0.0 | 0.0 | 0.00 | 0.00 | 0.00 | 94 | 1050.2 |
| 20260508104059 | 36 | 22 | 0.0 | 0.0 | 0.00 | 0.00 | 0.00 | 94 | 1050.3 |
| 20260508103556 | 37 | 22 | 0.0 | 0.0 | 0.00 | 0.00 | 0.00 | 94 | 1050.1 |
| 20260508103053 | 37 | 22 | 0.0 | 0.0 | 0.00 | 0.00 | 0.00 | 95 | 1050.1 |
| 20260508102551 | 37 | 23 | 0.0 | 0.0 | 0.00 | 0.00 | 0.00 | 95 | 1050.0 |
| 20260508102048 | 36 | 27 | 0.0 | 0.0 | 0.00 | 0.00 | 0.00 | 94 | 1050.0 |
| 20260508101546 | 36 | 27 | 0.0 | 0.0 | 0.00 | 0.00 | 0.00 | 94 | 1050.0 |
| 20260508101043 | 36 | 27 | 0.0 | 0.0 | 0.00 | 0.00 | 0.00 | 94 | 1050.0 |
| 20260508100541 | 37 | 27 | 0.0 | 0.0 | 0.00 | 0.00 | 0.00 | 94 | 1050.1 |
| 20260508100037 | 37 | 28 | 0.0 | 0.0 | 0.00 | 0.00 | 0.00 | 94 | 1049.9 |
| 20260508095535 | 36 | 28 | 0.0 | 0.0 | 0.00 | 0.00 | 0.00 | 94 | 1050.0 |
| 20260508095031 | 36 | 28 | 0.0 | 0.0 | 0.00 | 0.00 | 0.00 | 94 | 1049.9 |
| 20260508094529 | 36 | 34 | 0.0 | 0.0 | 0.00 | 0.00 | 0.00 | 94 | 1050.1 |
| 20260508094025 | 36 | 35 | 0.0 | 0.0 | 0.00 | 0.00 | 0.00 | 94 | 1049.9 |
| 20260508093522 | 37 | 35 | 0.0 | 0.0 | 0.00 | 0.00 | 0.00 | 95 | 1050.0 |
| 20260508093020 | 37 | 34 | 0.0 | 0.0 | 0.00 | 0.00 | 0.00 | 95 | 1050.1 |
| 20260508092517 | 36 | 34 | 0.0 | 0.0 | 0.00 | 0.00 | 0.00 | 95 | 1050.1 |
| 20260508092016 | 36 | 28 | 0.0 | 0.0 | 0.00 | 0.00 | 0.00 | 95 | 1050.1 |
| 20260508091513 | 36 | 50 | 0.0 | 0.0 | 0.00 | 0.00 | 0.00 | 94 | 1050.1 |
| 20260508091009 | 36 | 48 | 0.0 | 0.0 | 0.00 | 0.00 | 0.00 | 95 | 1050.1 |
| 20260508090508 | 36 | 48 | 0.0 | 0.0 | 0.00 | 0.00 | 0.00 | 94 | 1050.1 |
| 20260508090004 | 37 | 42 | 0.0 | 0.0 | 0.00 | 0.00 | 0.00 | 95 | 1050.0 |
| 20260508085500 | 36 | 32 | 0.0 | 0.0 | 0.00 | 0.00 | 0.00 | 95 | 1050.2 |
| 20260508084957 | 37 | 80 | 0.0 | 0.0 | 0.00 | 0.00 | 0.00 | 95 | 1050.3 |
| 20260508084454 | 37 | 101 | 0.0 | 0.0 | 0.00 | 0.00 | 0.00 | 95 | 1050.2 |
| 20260508083952 | 37 | 101 | 0.0 | 0.0 | 0.00 | 0.00 | 0.00 | 95 | 1050.2 |
| 20260508083449 | 37 | 101 | 0.0 | 0.0 | 0.00 | 0.00 | 0.00 | 95 | 1050.1 |
| 20260508082944 | 37 | 101 | 0.0 | 0.0 | 0.00 | 0.00 | 0.00 | 95 | 1050.4 |
| 20260508082441 | 37 | 101 | 0.0 | 0.0 | 0.00 | 0.00 | 0.00 | 95 | 1050.2 |
| 20260508081939 | 37 | 101 | 0.0 | 0.0 | 0.00 | 0.00 | 0.00 | 95 | 1050.3 |
| 20260508081435 | 37 | 101 | 0.0 | 0.0 | 0.00 | 0.00 | 0.00 | 95 | 1050.2 |
| 20260508080932 | 36 | 101 | 0.0 | 0.0 | 0.00 | 0.00 | 0.00 | 95 | 1050.0 |
| 20260508080430 | 36 | 102 | 0.0 | 0.0 | 0.00 | 0.00 | 0.00 | 95 | 1050.1 |
| 20260508075926 | 36 | 102 | 0.0 | 0.0 | 0.00 | 0.00 | 0.00 | 95 | 1050.1 |
| 20260508075424 | 37 | 102 | 0.0 | 0.0 | 0.00 | 0.00 | 0.00 | 95 | 1050.1 |
| 20260508074921 | 37 | 101 | 0.0 | 0.0 | 0.00 | 0.00 | 0.00 | 95 | 1049.9 |
| 20260508074418 | 37 | 103 | 0.0 | 0.0 | 0.00 | 0.00 | 0.00 | 95 | 1050.2 |
| 20260508073915 | 37 | 103 | 0.0 | 0.0 | 0.00 | 0.00 | 0.00 | 95 | 1050.3 |
| 20260508073413 | 37 | 103 | 0.0 | 0.0 | 0.00 | 0.00 | 0.00 | 95 | 1050.1 |
| 20260508072910 | 37 | 103 | 0.0 | 0.0 | 0.00 | 0.00 | 0.00 | 95 | 1049.8 |
| 20260508072406 | 37 | 103 | 0.0 | 0.0 | 0.00 | 0.00 | 0.00 | 95 | 1050.1 |
| 20260508071903 | 37 | 103 | 0.0 | 0.0 | 0.00 | 0.00 | 0.00 | 95 | 1050.2 |
| 20260508071401 | 37 | 103 | 0.0 | 0.0 | 0.00 | 0.00 | 0.00 | 95 | 1050.2 |
| 20260508070859 | 37 | 103 | 0.0 | 0.0 | 0.00 | 0.00 | 0.00 | 94 | 1050.2 |
| 20260508070356 | 37 | 103 | 0.0 | 0.0 | 0.00 | 0.00 | 0.00 | 94 | 1050.1 |
| 20260508065854 | 38 | 103 | 0.0 | 0.0 | 0.00 | 0.00 | 0.00 | 95 | 1050.2 |
| 20260508065352 | 37 | 103 | 0.0 | 0.0 | 0.00 | 0.00 | 0.00 | 95 | 1050.2 |
| 20260508064850 | 37 | 103 | 0.0 | 0.0 | 0.00 | 0.00 | 0.00 | 94 | 1050.2 |
| 20260508064347 | 37 | 103 | 0.0 | 0.0 | 0.00 | 0.00 | 0.00 | 94 | 1050.1 |
| 20260508063845 | 38 | 103 | 0.0 | 0.0 | 0.00 | 0.00 | 0.00 | 94 | 1050.4 |
| 20260508063342 | 38 | 103 | 0.0 | 0.0 | 0.00 | 0.00 | 0.00 | 94 | 1050.3 |
| 20260508062839 | 38 | 103 | 0.0 | 0.0 | 0.00 | 0.00 | 0.00 | 94 | 1050.2 |
| 20260508062337 | 37 | 103 | 0.0 | 0.0 | 0.00 | 0.00 | 0.00 | 93 | 1050.3 |
| 20260508061833 | 37 | 103 | 0.0 | 0.0 | 0.00 | 0.00 | 0.00 | 93 | 1050.1 |
| 20260508061331 | 37 | 103 | 0.0 | 0.0 | 0.00 | 0.00 | 0.00 | 93 | 1050.2 |
| 20260508060827 | 37 | 103 | 0.0 | 0.0 | 0.00 | 0.00 | 0.00 | 92 | 1050.3 |
| 20260508060325 | 38 | 103 | 0.0 | 0.0 | 0.00 | 0.00 | 0.00 | 92 | 1050.2 |
| 20260508055820 | 38 | 8 | 0.0 | 0.0 | 0.00 | 0.00 | 0.00 | 93 | 1050.3 |
| 20260508055318 | 39 | 8 | 0.0 | 0.0 | 0.00 | 0.00 | 0.00 | 93 | 1050.6 |
| 20260508054814 | 39 | 58 | 0.0 | 0.0 | 0.00 | 0.00 | 0.00 | 93 | 1050.4 |
| 20260508054312 | 39 | 58 | 0.0 | 0.0 | 0.00 | 0.00 | 0.00 | 93 | 1050.6 |
| 20260508053808 | 38 | 58 | 0.0 | 0.0 | 0.00 | 0.00 | 0.00 | 93 | 1050.5 |
| 20260508053306 | 39 | 58 | 0.0 | 0.0 | 0.00 | 0.00 | 0.00 | 93 | 1050.6 |
| 20260508052803 | 39 | 56 | 0.0 | 0.0 | 0.00 | 0.00 | 0.00 | 92 | 1050.4 |
| 20260508052300 | 39 | 56 | 0.0 | 0.0 | 0.00 | 0.00 | 0.00 | 92 | 1050.6 |
| 20260508051756 | 39 | 56 | 0.0 | 0.0 | 0.00 | 0.00 | 0.00 | 92 | 1050.5 |
| 20260508051251 | 39 | 56 | 0.0 | 0.0 | 0.00 | 0.00 | 0.00 | 92 | 1050.5 |
| 20260508050748 | 39 | 56 | 0.0 | 0.0 | 0.00 | 0.00 | 0.00 | 91 | 1050.6 |
| 20260508050246 | 39 | 62 | 0.0 | 0.0 | 0.00 | 0.00 | 0.00 | 91 | 1050.5 |
| 20260508045741 | 39 | 62 | 0.0 | 0.0 | 0.00 | 0.00 | 0.00 | 90 | 1050.3 |
| 20260508045239 | 40 | 45 | 0.0 | 0.0 | 0.00 | 0.00 | 0.00 | 89 | 1050.2 |
| 20260508044736 | 40 | 40 | 0.0 | 0.0 | 0.00 | 0.00 | 0.00 | 89 | 1050.3 |
| 20260508044233 | 40 | 40 | 0.0 | 0.0 | 0.00 | 0.00 | 0.00 | 89 | 1050.4 |
| 20260508043729 | 40 | 40 | 0.0 | 0.0 | 0.00 | 0.00 | 0.00 | 88 | 1050.4 |
| 20260508043227 | 40 | 41 | 0.0 | 0.0 | 0.00 | 0.00 | 0.00 | 88 | 1050.5 |
| 20260508042723 | 41 | 42 | 0.0 | 0.0 | 0.00 | 0.00 | 0.00 | 87 | 1050.4 |
| 20260508042221 | 41 | 42 | 0.0 | 0.0 | 0.00 | 0.00 | 0.00 | 87 | 1050.5 |
| 20260508041717 | 41 | 42 | 0.0 | 0.0 | 0.00 | 0.00 | 0.00 | 86 | 1050.3 |
| 20260508041214 | 42 | 42 | 0.0 | 0.0 | 0.00 | 0.00 | 0.00 | 83 | 1050.4 |
| 20260508040710 | 42 | 48 | 0.0 | 0.0 | 0.00 | 0.00 | 0.00 | 83 | 1050.2 |
| 20260508040208 | 42 | 36 | 0.0 | 0.0 | 0.00 | 0.00 | 0.00 | 84 | 1050.1 |
| 20260508035705 | 41 | 31 | 0.0 | 0.0 | 0.00 | 0.00 | 0.00 | 87 | 1050.3 |
| 20260508035202 | 42 | 33 | 0.0 | 0.0 | 0.00 | 0.00 | 0.00 | 85 | 1050.3 |
| 20260508034659 | 42 | 36 | 0.0 | 0.0 | 0.00 | 0.00 | 0.00 | 87 | 1050.2 |
| 20260508034156 | 42 | 55 | 0.0 | 0.0 | 0.00 | 0.00 | 0.00 | 87 | 1050.5 |
| 20260508033653 | 42 | 56 | 0.0 | 0.0 | 0.00 | 0.00 | 0.00 | 87 | 1050.4 |
| 20260508033152 | 42 | 56 | 0.0 | 0.0 | 0.00 | 0.00 | 0.00 | 84 | 1050.3 |
| 20260508032648 | 43 | 55 | 0.0 | 0.0 | 0.00 | 0.00 | 0.00 | 81 | 1050.5 |
| 20260508032145 | 43 | 56 | 0.0 | 0.0 | 0.00 | 0.00 | 0.00 | 80 | 1050.4 |
| 20260508031642 | 44 | 55 | 0.0 | 0.0 | 0.00 | 0.00 | 0.00 | 79 | 1050.5 |
| 20260508031138 | 44 | 55 | 0.0 | 0.0 | 0.00 | 0.00 | 0.00 | 78 | 1050.6 |
| 20260508030635 | 44 | 55 | 0.0 | 0.0 | 0.00 | 0.00 | 0.00 | 78 | 1050.5 |
| 20260508030133 | 44 | 55 | 0.0 | 0.0 | 0.00 | 0.00 | 0.00 | 76 | 1050.4 |
| 20260508025629 | 44 | 55 | 0.0 | 0.0 | 0.00 | 0.00 | 0.00 | 79 | 1050.4 |
| 20260508025126 | 44 | 56 | 0.0 | 0.0 | 0.00 | 0.00 | 0.00 | 84 | 1050.3 |
| 20260508024622 | 44 | 56 | 0.0 | 0.0 | 0.00 | 0.00 | 0.00 | 82 | 1050.4 |
| 20260508024119 | 44 | 56 | 0.0 | 0.0 | 0.00 | 0.00 | 0.00 | 81 | 1050.4 |
| 20260508023615 | 45 | 56 | 0.0 | 0.0 | 0.00 | 0.00 | 0.00 | 80 | 1050.2 |
| 20260508023113 | 45 | 56 | 0.0 | 0.0 | 0.00 | 0.00 | 0.00 | 78 | 1050.2 |
| 20260508022608 | 46 | 55 | 0.0 | 0.0 | 0.00 | 0.00 | 0.00 | 73 | 1050.3 |
| 20260508022106 | 46 | 56 | 0.0 | 0.0 | 0.00 | 0.00 | 0.00 | 75 | 1050.2 |
| 20260508021601 | 46 | 52 | 0.0 | 0.0 | 0.00 | 0.00 | 0.00 | 72 | 1050.2 |
| 20260508021058 | 46 | 50 | 0.0 | 0.0 | 0.00 | 0.00 | 0.00 | 73 | 1050.1 |
| 20260508020555 | 46 | 50 | 0.0 | 0.0 | 0.00 | 0.00 | 0.00 | 72 | 1050.2 |
| 20260508020053 | 47 | 22 | 0.0 | 0.0 | 0.00 | 0.00 | 0.00 | 67 | 1050.1 |
| 20260508015550 | 48 | 348 | 0.0 | 0.0 | 0.00 | 0.00 | 0.00 | 62 | 1050.0 |
| 20260508015047 | 49 | 348 | 0.0 | 0.0 | 0.00 | 0.00 | 0.00 | 60 | 1050.0 |
| 20260508014543 | 49 | 348 | 0.0 | 0.0 | 0.00 | 0.00 | 0.00 | 58 | 1049.8 |
| 20260508014040 | 49 | 348 | 0.0 | 0.0 | 0.00 | 0.00 | 0.00 | 60 | 1049.7 |
| 20260508013536 | 50 | 326 | 0.0 | 0.0 | 0.00 | 0.00 | 0.00 | 59 | 1049.6 |
| 20260508013033 | 52 | 326 | 0.0 | 0.0 | 0.00 | 0.00 | 0.00 | 53 | 1049.6 |
| 20260508012530 | 52 | 311 | 0.0 | 0.0 | 0.00 | 0.00 | 0.00 | 50 | 1049.7 |
| 20260508012028 | 53 | 300 | 0.0 | 0.0 | 0.00 | 0.00 | 0.00 | 48 | 1049.5 |
| 20260508011526 | 53 | 300 | 0.0 | 0.0 | 0.00 | 0.00 | 0.00 | 46 | 1049.5 |
| 20260508011023 | 53 | 301 | 0.0 | 0.0 | 0.00 | 0.00 | 0.00 | 45 | 1049.2 |
| 20260508010520 | 53 | 301 | 0.0 | 0.0 | 0.00 | 0.00 | 0.00 | 46 | 1049.6 |
| 20260508010017 | 53 | 300 | 0.0 | 0.0 | 0.00 | 0.00 | 0.00 | 49 | 1049.2 |
| 20260508005513 | 54 | 300 | 0.0 | 0.0 | 0.00 | 0.00 | 0.00 | 47 | 1049.3 |
| 20260508005010 | 54 | 301 | 0.0 | 0.0 | 0.00 | 0.00 | 0.00 | 47 | 1049.0 |
| 20260508004506 | 55 | 297 | 0.0 | 0.0 | 0.00 | 0.00 | 0.00 | 45 | 1049.2 |
| 20260508004003 | 55 | 306 | 0.0 | 0.0 | 0.00 | 0.00 | 0.00 | 45 | 1049.1 |
| 20260508003500 | 56 | 303 | 0.0 | 0.0 | 0.00 | 0.00 | 0.00 | 44 | 1049.0 |
| 20260508002957 | 56 | 311 | 0.0 | 0.0 | 0.00 | 0.00 | 0.00 | 42 | 1049.0 |
| 20260508002453 | 56 | 313 | 0.0 | 0.0 | 0.00 | 0.00 | 0.00 | 43 | 1049.1 |
| 20260508001949 | 56 | 307 | 0.0 | 0.0 | 0.00 | 0.00 | 0.00 | 42 | 1049.0 |
| 20260508001446 | 57 | 313 | 0.0 | 0.0 | 0.00 | 0.00 | 0.00 | 41 | 1049.0 |
| 20260508000942 | 58 | 294 | 0.0 | 0.0 | 0.00 | 0.00 | 0.00 | 41 | 1048.9 |
| 20260508000438 | 59 | 321 | 0.0 | 0.0 | 0.00 | 0.00 | 0.00 | 39 | 1048.6 |
| 20260507235935 | 59 | 313 | 0.0 | 0.0 | 0.00 | 0.00 | 0.00 | 38 | 1048.9 |
| 20260507235432 | 60 | 322 | 0.0 | 0.0 | 0.00 | 0.00 | 0.00 | 38 | 1048.8 |
| 20260507234930 | 60 | 316 | 0.0 | 0.0 | 0.00 | 0.00 | 0.00 | 38 | 1048.8 |
| 20260507234426 | 60 | 312 | 0.0 | 0.0 | 0.00 | 0.00 | 0.00 | 37 | 1048.9 |
| 20260507233923 | 60 | 311 | 0.0 | 0.0 | 0.00 | 0.00 | 0.00 | 37 | 1048.8 |
| 20260507233420 | 60 | 317 | 0.0 | 0.0 | 0.00 | 0.00 | 0.00 | 37 | 1049.0 |
| 20260507232918 | 61 | 306 | 0.0 | 0.0 | 0.00 | 0.00 | 0.00 | 36 | 1048.9 |
| 20260507232414 | 61 | 289 | 0.0 | 0.0 | 0.00 | 0.00 | 0.00 | 37 | 1048.4 |
| 20260507231912 | 62 | 293 | 0.0 | 0.0 | 0.00 | 0.00 | 0.00 | 35 | 1048.5 |
| 20260507231408 | 62 | 296 | 0.0 | 0.0 | 0.00 | 0.00 | 0.00 | 36 | 1048.8 |
| 20260507230904 | 62 | 310 | 0.0 | 0.0 | 0.00 | 0.00 | 0.00 | 33 | 1048.9 |
| 20260507230402 | 61 | 309 | 0.0 | 0.0 | 0.00 | 0.00 | 0.00 | 34 | 1048.8 |
| 20260507225902 | 61 | 307 | 0.0 | 0.0 | 0.00 | 0.00 | 0.00 | 38 | 1048.8 |